Regional Weather Roundup
Issued by NWS

Home | Current Version | Previous Version | Text Only | Print | Product List | Glossary On
Versions: 1 2 3 4 5 6 7 8 9 10 11 12 13 14 15 16 17 18 19 20 21 22 23 24 25 26 27 28 29 30 31 32 33 34 35 36 37 38 39 40 41 42 43 44 45 46 47 48 49 50
000
ASUS43 KLMK 260502
RWRKY
KENTUCKY REGIONAL WEATHER ROUNDUP
NATIONAL WEATHER SERVICE LOUISVILLE KY
100 AM EDT FRI AUG 26 2016

NOTE "FAIR" INDICATES FEW OR NO CLOUDS BELOW 12,000 FEET
WITH NO SIGNIFICANT WEATHER AND/OR OBSTRUCTIONS TO VISIBILITY.

KYZ001>023-026-027-061>063-070>075-260600-
WESTERN AND SOUTH CENTRAL KENTUCKY

CITY           SKY/WX    TMP DP  RH WIND       PRES   REMARKS
PADUCAH        FAIR      76  73  91 W3        30.07R
HENDERSON      FAIR      73  68  83 CALM      30.07R
OWENSBORO      FAIR      76  75  96 CALM      30.08S
HOPKINSVILLE   FAIR      79  75  88 SW5       30.09S
BOWLING GREEN  FAIR      77  74  90 CALM      30.10S
GLASGOW        FAIR      74  74 100 CALM      30.12R FOG
$$

KYZ024-025-028>034-038-045-046-053-260600-
NORTH CENTRAL KENTUCKY

CITY           SKY/WX    TMP DP  RH WIND       PRES   REMARKS
LOUISVILLE/SDF FAIR      81  70  69 CALM      30.09R
LOUISVILLE/LOU FAIR      79  70  74 CALM      30.10R
FORT KNOX      FAIR      72  70  95 CALM      30.09S
$$

KYZ035>037-039>044-047>052-055>060-089>105-260600-
NORTHEAST KENTUCKY

CITY           SKY/WX    TMP DP  RH WIND       PRES   REMARKS
LEXINGTON      FAIR      75  71  87 S5        30.12R
COVINGTON      FAIR      77  72  84 SW3       30.10R
FRANKFORT      FAIR      74  69  85 CALM      30.10R
$$

KYZ054-064>069-076>088-106>120-260600-
SOUTHEAST KENTUCKY

CITY           SKY/WX    TMP DP  RH WIND       PRES   REMARKS
JACKSON        FAIR      75  72  90 CALM      30.15R
LONDON         FAIR      74  70  87 CALM      30.14S
SOMERSET       FAIR      72  72 100 CALM      30.15R
MIDDLESBORO    MOCLDY    71  71 100 CALM      30.16S FOG
MONTICELLO     FAIR     N/A N/A N/A W6        30.15R
$$





USA.gov is the U.S. government's official web portal to all federal, state and local government web resources and services.